CW5066 Weather Reports


time (UTC)temp
C
wind
direction
speed
KPH
gust
KPH
rain 1hr
cm
rain 24hr
cm
rain mn
cm
humidity
%
barometer
mb
20260904170516 20 293 3.2 9.7 0.00 0.00 0.00 30 1027.6
20260904165516 20 0.0 3.2 0.00 0.00 0.00 32 1027.6
20260904164557 19 338 6.4 16.1 0.00 0.00 0.00 30 1026.8
20260904163516 18 293 4.8 12.9 0.00 0.00 0.00 30 1026.8
20260904162516 18 270 4.8 11.3 0.00 0.00 0.00 30 1026.7
20260904161516 18 270 4.8 12.9 0.00 0.00 0.00 30 1026.7
20260904160516 18 315 3.2 12.9 0.00 0.00 0.00 31 1026.6
20260904155516 18 293 1.6 4.8 0.00 0.00 0.00 33 1026.6
20260904154516 17 293 3.2 8.0 0.00 0.00 0.00 33 1026.1
20260904153636 17 248 3.2 9.7 0.00 0.00 0.00 35 1026.7
20260904152516 17 270 1.6 4.8 0.00 0.00 0.00 35 1026.1
20260904151516 17 0.0 3.2 0.00 0.00 0.00 36 1026.1
20260904150516 16 0.0 3.2 0.00 0.00 0.00 37 1025.6
20260904145516 15 0.0 4.8 0.00 0.00 0.00 38 1025.6
20260904144516 15 225 1.6 3.2 0.00 0.00 0.00 39 1024.9
20260904143516 15 225 1.6 4.8 0.00 0.00 0.00 39 1024.8
20260904142536 14 225 1.6 4.8 0.00 0.00 0.00 40 1024.9
20260904141556 13 203 1.6 3.2 0.00 0.00 0.00 40 1024.9
20260904140515 13 248 1.6 4.8 0.00 0.00 0.00 40 1025.4
20260904135536 13 270 3.2 6.4 0.00 0.00 0.00 40 1025.1
20260904134516 13 248 4.8 8.0 0.00 0.00 0.00 40 1024.9
20260904133515 13 248 4.8 12.9 0.00 0.00 0.00 40 1025.9
20260904132516 13 248 4.8 8.0 0.00 0.00 0.00 39 1025.1
20260904131536 12 248 4.8 8.0 0.00 0.00 0.00 39 1025.1
20260904130516 12 248 3.2 6.4 0.00 0.00 0.00 39 1026.1
20260904125516 13 248 3.2 6.4 0.00 0.00 0.00 38 1026.5
20260904124536 13 225 3.2 6.4 0.00 0.00 0.00 37 1026.3
20260904123515 13 203 4.8 8.0 0.00 0.00 0.00 37 1027.4
20260904122515 13 203 6.4 9.7 0.00 0.00 0.00 36 1027.9
20260904121515 13 180 6.4 12.9 0.00 0.00 0.00 37 1027.1
20260904120515 13 180 6.4 8.0 0.00 0.00 0.00 37 1027.2
20260904115515 13 158 3.2 4.8 0.00 0.00 0.00 37 1027.2
20260904114535 13 0.0 3.2 0.00 0.00 0.00 36 1027.2
20260904113515 13 0.0 3.2 0.00 0.00 0.00 36 1027.8
20260904112515 13 158 1.6 3.2 0.00 0.00 0.00 36 1028.0
20260904111515 13 180 1.6 4.8 0.00 0.00 0.00 35 1027.8
20260904110517 14 135 1.6 3.2 0.00 0.00 0.00 35 1027.7
20260904105518 13 0.0 3.2 0.00 0.00 0.00 35 1027.7
20260904104517 13 315 1.6 4.8 0.00 0.00 0.00 35 1027.7
20260904103517 13 0.0 3.2 0.00 0.00 0.00 36 1027.1
20260904102517 13 180 3.2 4.8 0.00 0.00 0.00 36 1027.0
20260904101517 13 203 3.2 6.4 0.00 0.00 0.00 36 1027.2
20260904100517 13 180 3.2 4.8 0.00 0.00 0.00 36 1028.5
20260904095517 13 180 3.2 6.4 0.00 0.00 0.00 35 1028.5
20260904094517 13 203 3.2 4.8 0.00 0.00 0.00 36 1028.4
20260904093517 13 180 3.2 4.8 0.00 0.00 0.00 36 1027.2
20260904092517 13 203 3.2 4.8 0.00 0.00 0.00 35 1027.1
20260904091517 14 203 1.6 4.8 0.00 0.00 0.00 35 1027.1
20260904090537 13 0.0 3.2 0.00 0.00 0.00 36 1027.2
20260904085517 13 0.0 3.2 0.00 0.00 0.00 37 1027.2
20260904084517 13 225 1.6 4.8 0.00 0.00 0.00 37 1027.2
20260904083517 13 225 3.2 8.0 0.00 0.00 0.00 36 1026.7
20260904082517 13 225 3.2 6.4 0.00 0.00 0.00 35 1026.6
20260904081517 14 225 3.2 6.4 0.00 0.00 0.00 35 1026.7
20260904080517 14 225 1.6 4.8 0.00 0.00 0.00 35 1026.2
20260904075517 15 225 3.2 4.8 0.00 0.00 0.00 36 1026.1
20260904074516 15 0.0 3.2 0.00 0.00 0.00 38 1026.9
20260904073516 15 180 4.8 6.4 0.00 0.00 0.00 39 1026.9
20260904072537 15 180 1.6 4.8 0.00 0.00 0.00 38 1027.0
20260904071516 15 180 3.2 6.4 0.00 0.00 0.00 38 1027.0
20260904070517 15 180 1.6 4.8 0.00 0.00 0.00 38 1026.5
20260904065517 15 158 1.6 4.8 0.00 0.00 0.00 38 1026.5
20260904064517 15 180 3.2 4.8 0.00 0.00 0.00 39 1026.6
20260904063536 15 158 3.2 3.2 0.00 0.00 0.00 40 1025.4
20260904062517 15 135 1.6 3.2 0.00 0.00 0.00 40 1025.5
20260904061517 15 135 3.2 4.8 0.00 0.00 0.00 41 1025.6
20260904060516 15 158 4.8 6.4 0.00 0.00 0.00 41 1025.5
20260904055517 15 180 3.2 4.8 0.00 0.00 0.00 41 1025.6
20260904054517 15 180 3.2 4.8 0.00 0.00 0.00 41 1025.6
20260904053517 14 0.0 3.2 0.00 0.00 0.00 42 1025.0
20260904052517 14 158 1.6 4.8 0.00 0.00 0.00 43 1025.0
20260904051517 14 203 3.2 4.8 0.00 0.00 0.00 43 1025.0
20260904050517 14 203 1.6 3.2 0.00 0.00 0.00 43 1024.3
20260904045517 14 203 1.6 3.2 0.00 0.00 0.00 44 1024.5
20260904044517 15 0.0 3.2 0.00 0.00 0.00 43 1024.6
20260904043537 15 0 1.6 3.2 0.00 0.00 0.00 43 1024.5
20260904042517 15 23 3.2 6.4 0.00 0.00 0.00 44 1024.7
20260904041517 15 0 4.8 12.9 0.00 0.00 0.00 43 1024.7
20260904040517 15 0 4.8 12.9 0.00 0.00 0.00 43 1024.2
20260904035517 15 0 4.8 11.3 0.00 0.00 0.00 43 1024.3
20260904034516 15 0 4.8 11.3 0.00 0.00 0.00 43 1024.5
20260904033537 15 23 4.8 11.3 0.00 0.00 0.00 43 1023.9
20260904032517 15 0 6.4 12.9 0.00 0.00 0.00 43 1024.3
20260904031536 15 0 4.8 11.3 0.00 0.00 0.00 41 1024.1
20260904030516 15 0 4.8 11.3 0.00 0.00 0.00 41 1024.3
20260904025516 15 0 6.4 14.5 0.00 0.00 0.00 40 1023.6
20260904024536 15 0 8.0 17.7 0.00 0.00 0.00 39 1023.6
20260904023516 15 0 6.4 16.1 0.00 0.00 0.00 39 1023.5
20260904022537 16 23 4.8 11.3 0.00 0.00 0.00 38 1022.7
20260904021516 16 23 3.2 8.0 0.00 0.00 0.00 38 1023.2
20260904020536 16 23 3.2 6.4 0.00 0.00 0.00 38 1022.9
20260904015516 16 23 3.2 8.0 0.00 0.00 0.00 37 1022.3
20260904014517 17 23 1.6 6.4 0.00 0.00 0.00 36 1022.9
20260904013516 18 45 1.6 8.0 0.00 0.00 0.00 34 1023.4
20260904012517 18 68 1.6 6.4 0.00 0.00 0.00 33 1023.5
20260904011516 19 23 3.2 8.0 0.00 0.00 0.00 32 1024.1
20260904010516 20 23 1.6 4.8 0.00 0.00 0.00 32 1024.1
20260904005516 20 45 1.6 3.2 0.00 0.00 0.00 31 1024.7
20260904004516 21 68 1.6 4.8 0.00 0.00 0.00 30 1025.3
20260904003516 22 0.0 3.2 0.00 0.00 0.00 29 1025.5
20260904002516 23 23 3.2 8.0 0.00 0.00 0.00 27 1026.1
20260904001516 24 45 1.6 6.4 0.00 0.00 0.00 26 1026.9
20260904000516 25 68 3.2 9.7 0.00 0.00 0.00 26 1027.5
20260903235516 25 0 3.2 11.3 0.00 0.00 0.00 24 1027.3
20260903234536 25 23 6.4 14.5 0.00 0.00 0.00 25 1027.4
20260903233516 25 45 4.8 14.5 0.00 0.00 0.00 26 1027.5
20260903232516 25 23 6.4 12.9 0.00 0.00 0.00 26 1026.8
20260903231516 25 23 3.2 11.3 0.00 0.00 0.00 25 1027.2
20260903230516 25 23 4.8 14.5 0.00 0.00 0.00 26 1027.4
20260903225516 25 23 6.4 14.5 0.00 0.00 0.00 25 1027.4
20260903224516 25 23 4.8 16.1 0.00 0.00 0.00 27 1026.9
20260903223516 25 23 4.8 14.5 0.00 0.00 0.00 27 1026.9
20260903222516 24 68 3.2 11.3 0.00 0.00 0.00 27 1027.0
20260903221536 23 90 4.8 11.3 0.00 0.00 0.00 27 1027.2
20260903220536 25 45 3.2 12.9 0.00 0.00 0.00 28 1027.4
20260903215516 24 45 3.2 12.9 0.00 0.00 0.00 27 1027.4
20260903214516 25 23 6.4 16.1 0.00 0.00 0.00 26 1028.1
20260903213516 26 45 3.2 12.9 0.00 0.00 0.00 26 1028.6
20260903212515 25 23 4.8 16.1 0.00 0.00 0.00 27 1028.7
20260903211516 25 113 3.2 16.1 0.00 0.00 0.00 27 1028.1
20260903210515 24 0 8.0 20.9 0.00 0.00 0.00 26 1028.2
20260903205516 24 45 6.4 19.3 0.00 0.00 0.00 28 1028.5
20260903204536 23 45 9.7 24.1 0.00 0.00 0.00 28 1027.9
20260903203515 24 23 8.0 16.1 0.00 0.00 0.00 27 1028.4
20260903202515 24 90 4.8 12.9 0.00 0.00 0.00 27 1028.6
20260903201515 23 23 6.4 16.1 0.00 0.00 0.00 29 1028.8
20260903200516 22 0 4.8 17.7 0.00 0.00 0.00 27 1028.5
20260903195515 22 203 6.4 14.5 0.00 0.00 0.00 18 1027.5
20260903194515 22 180 6.4 16.1 0.00 0.00 0.00 19 1027.4
20260903193515 21 203 6.4 19.3 0.00 0.00 0.00 20 1027.0
20260903192515 21 203 12.9 24.1 0.00 0.00 0.00 21 1027.6
20260903191515 21 248 6.4 16.1 0.00 0.00 0.00 21 1027.8
20260903190515 21 225 6.4 19.3 0.00 0.00 0.00 24 1028.0
20260903185515 20 270 6.4 17.7 0.00 0.00 0.00 23 1027.9
20260903184515 20 180 14.5 37.0 0.00 0.00 0.00 23 1027.6
20260903183515 20 203 11.3 22.5 0.00 0.00 0.00 23 1027.7
20260903182537 19 203 11.3 27.4 0.00 0.00 0.00 25 1027.9
20260903181517 19 203 9.7 19.3 0.00 0.00 0.00 25 1027.8
20260903180517 18 180 12.9 29.0 0.00 0.00 0.00 26 1027.6
20260903175517 18 225 6.4 16.1 0.00 0.00 0.00 27 1027.7
20260903174517 18 248 8.0 32.2 0.00 0.00 0.00 29 1027.9
20260903173517 18 180 8.0 27.4 0.00 0.00 0.00 28 1027.7
20260903172537 18 225 8.0 17.7 0.00 0.00 0.00 29 1027.8
20260903171517 17 180 11.3 19.3 0.00 0.00 0.00 31 1027.9